STARLINK-33741, 63365

Orbit data source: Space-Track

STARLINK-33741, 63365 is a payload satellite owned by SpaceX/Seattle (US) in LEO that was launched on Wed, 26 Mar 2025 UTC via an FALCON 9 launch vehicle from the Air Force Western Test Range (AFWTR). Payload-class satellites include a variety of spacecraft equipped with specific instruments for various scientific and technological missions. These include communications satellites like Starlink; space stations such as the ISS; scientific satellites like the Hubble; Earth observation satellites from companies like Planet Labs, Umbra, and HawkEye 360; GPS; miniature CubeSats for education and research; and military/defense satellites.

Loading next visibility...
Identifier
63365, 2025-063C
Orbit
LEO
Country
Flag of USUS
Related business
Manufacturer
SpaceX/Seattle
Mission
Operational Commercial Communications
Bus & Motor
STARLINK V2MO, Unknown motor
Mass
575 kg wet, ~530 kg dry
Launch date (UTC)
2025-03-26 (1 year ago)
Launch vehicle
FALCON 9
Launch site
Air Force Western Test Range (AFWTR)
Object type
Payload
Rocket body
Debris
Shape & HBR
Box + 2 Pan, 17.7 m
Radar Cross Section
36.964 m², Large (>1 m²)

Expand to show TLE details & history
Last TLE update: 1 day ago

TLE from 1 day ago
0 STARLINK-33741
1 63365U 25063C   26170.72835910  .00031812  00000-0  94819-3 0  9999
2 63365  53.1595 295.5548 0001130  79.9759 280.1372 15.34415913 70424
Epoch: 2026-06-19T17:28Z
TLE epoch observation values (Epoch: 2026-06-19T17:28:50.226Z)
Latitude
0.00007°
Longitude
125.3924°
Altitude
463.421 km
Speed
7.636 km/s
True Right ascension
19h 42m 13s
True Declination
0° 00' 00"
Sunlit
Object was in full shadow at epoch
Visualization orbit readout
Latitude
Unknown
Longitude
Unknown
Altitude
Unknown
Speed
Unknown
Apparent Right ascension
Unknown
Apparent Declination
Unknown
Sunlit
N/A
Visualization observer readout
Local Sidereal Time
07:17:23
Azimuth
Unknown
Elevation
Unknown
Doppler factor
Unknown
Orbital elements
Apogee altitude
463.686 km
Perigee altitude
462.14 km
Semi-major axis
6,841.05 km
Eccentricity
0.00011
Inclination
53.1595°
RAAN
295.5548°
Arg. of periapsis
79.9759°
True anomaly
280.12445°
Mean anomaly
280.1372°
Eccentric anomaly
280.13083°
Mean motion
3.83583 °/min
Orbital period
93.85 mins
BSTAR
0.00094819
Loading maneuver chart data...
Computing Atmospheric mass density...
Loading historical data...
Loading historical data...
Loading historical data...
Loading historical data...
Loading historical data...
Loading historical data...
Loading historical data...

Documentation

Showing up to 5 results
|